Home   Weather   Youngstown   Past weeks
Flag for USA

Past Weather in Youngstown, Ohio, USA — Yesterday and Last 2 Weeks

Now
43 °F

Mostly cloudy.


Feels Like: 38 °F
Forecast: 40 / 28 °F
Wind: 8 mph from Northwest

Location: Youngstown-Warren Regional Airport

Current Time: Mar 21, 2019 at 8:32:05 pm

Latest Report: Mar 21, 2019 at 7:51 pm


Visibility: 7 mi

Pressure: 29.82 "Hg

Humidity: 93%

Dew Point: 41 °F

Location of YoungstownLocation

Past Weather in Youngstown — Graph

°F

Youngstown Temperature Yesterday

Maximum temperature yesterday: 53 °F (at 3:51 pm)
Minimum temperature yesterday: 24 °F (at 4:51 am)
Average temperature yesterday: 42 °F

High & Low Weather Summary for the Past Weeks

 TemperatureHumidityPressure
High74 °F (Mar 14, 4:51 pm)93% (Mar 14, 11:14 pm)30.45 "Hg (Mar 14, 11:14 pm)
Low10 °F (Mar 8, 2:51 am)29% (Mar 13, 3:51 pm)29.59 "Hg (Mar 14, 8:51 pm)
Average37 °F63%30.14 "Hg
* Reported Mar 6 5:51 pm — Mar 21 6:51 pm, Youngstown. Weather by CustomWeather, © 2019

Note: Actual official high and low records may vary slightly from our data, if they occured in-between our weather recording intervals... More about our weather records

Advertising

Youngstown Weather History for the Previous 24 Hours

Scroll right to see more
 ConditionsComfort  
Time TempWeatherWind HumidityBarometerVisibility
6:51 pm
Thu, Mar 21
44 °FLight rain. Fog.5 mph85%29.81 "Hg4 mi
5:51 pm46 °FMostly cloudy.8 mph79%29.81 "Hg10 mi
4:51 pm47 °FOvercast.No wind74%29.81 "Hg10 mi
4:22 pm47 °FOvercast.5 mph74%29.79 "Hg10 mi
3:51 pm47 °FOvercast.No wind77%29.82 "Hg10 mi
2:51 pm46 °FMostly cloudy.3 mph79%29.83 "Hg10 mi
2:23 pm46 °FMostly cloudy.No wind79%29.84 "Hg10 mi
1:51 pm46 °FLight rain. More clouds than sun.3 mph79%29.86 "Hg8 mi
12:51 pm47 °FLight rain. Overcast.3 mph71%29.88 "Hg10 mi
11:51 am47 °FMostly cloudy.6 mph69%29.89 "Hg10 mi
11:40 am47 °FMostly cloudy.7 mph71%29.88 "Hg10 mi
11:17 am46 °FMostly cloudy.7 mph71%29.88 "Hg10 mi
10:51 am46 °FLight rain. Mostly cloudy.6 mph66%29.90 "Hg10 mi
10:13 am46 °FLight rain. Mostly cloudy.6 mph54%29.89 "Hg10 mi
9:51 am46 °FLight rain. Overcast.6 mph50%29.90 "Hg10 mi
8:51 am44 °FOvercast.5 mph49%29.90 "Hg10 mi
7:51 am41 °FMostly cloudy.5 mph58%29.91 "Hg10 mi
6:51 am41 °FOvercast.No wind62%29.92 "Hg10 mi
5:51 am42 °FMostly cloudy.No wind55%29.93 "Hg10 mi
4:51 am41 °FOvercast.No wind65%29.92 "Hg10 mi
3:51 am39 °FMostly cloudy.5 mph76%29.94 "Hg10 mi
2:51 am42 °FOvercast.3 mph71%29.96 "Hg10 mi
1:51 am44 °FMostly cloudy.No wind60%29.96 "Hg10 mi
12:51 am45 °FOvercast.5 mph56%29.98 "Hg10 mi
11:51 pm
Wed, Mar 20
46 °FOvercast.5 mph51%30.01 "Hg10 mi
10:51 pm48 °FOvercast.8 mph48%30.04 "Hg10 mi
9:51 pm49 °FOvercast.12 mph41%30.05 "Hg10 mi
8:51 pm50 °FMostly cloudy.9 mph35%30.05 "Hg10 mi
Weather by CustomWeather, © 2019

See weather overview